Worcester, MA

8:17 PM EST on February 20, 2017 (GMT -0500)
Worcester Regional

Weather History for KORH - January, 2014

Change the Weather History Date:

Thursday, January 2, 2014

  Actual Average Record
Temperature  
Mean Temperature 8 °F 25 °F  
Max Temperature 17 °F 32 °F 60 °F (1892)
Min Temperature -2 °F 18 °F -7 °F (1899)
Degree Days  
Heating Degree Days 57 40  
Month to date heating degree days 104 80  
Since 1 July heating degree days 2663 2584  
Cooling Degree Days 0 0  
Month to date cooling degree days 0 0  
Year to date cooling degree days 0 0  
Moisture  
Dew Point 6 °F    
Average Humidity 86    
Maximum Humidity 92    
Minimum Humidity 79    
Precipitation  
Precipitation 0.34 in 0.11 in 1.40 in (1893)
Month to date precipitation 0.34 0.22  
Year to date precipitation 0.34 0.22  
Sea Level Pressure  
Sea Level Pressure 30.08 in    
Wind  
Wind Speed 14 mph (NE)    
Max Wind Speed 23 mph    
Max Gust Speed 33 mph    
Visibility 1 miles    
Events Fog , Snow    
T = Trace of Precipitation, MM = Missing Value Source: NWS Daily Summary

Daily Weather History Graph

Daily Weather History Graph

Search for Another Location

Airport or City:

Trip Planner

Search our weather history database for the weather conditions in past years. The results will help you decide how hot, cold, wet, or windy it might be!

Date:

Astronomy

Jan. 02, 2014 Rise Set
Actual Time 7:16 AM EST 4:26 PM EST
Civil Twilight 6:44 AM EST 4:58 PM EST
Nautical Twilight 6:09 AM EST 5:33 PM EST
Astronomical Twilight 5:35 AM EST 6:07 PM EST
Moon 7:53 AM EST (1/2) 6:22 PM EST (1/2)
Length of Visible Light 10h 13m
Length of Day
9h 10m
New Moon, 2% of the Moon is Illuminated
Jan 2
New Moon
Jan 7
First Quarter
Jan 15
Full
Jan 24
Last Quarter
Jan 30
New

Hourly Weather History & Observations

Time (EST) Temp. Windchill Dew Point Humidity Pressure Visibility Wind Dir Wind Speed Gust Speed Precip Events Conditions
12:38 AM 17.1 °F 11.7 °F 12.9 °F 84% 30.26 in 2.5 mi NE 3.5 mph - 0.00 in Snow Light Snow
12:46 AM 17.1 °F 10.0 °F 12.9 °F 84% 30.26 in 1.8 mi NE 4.6 mph - 0.00 in Snow Light Snow
12:54 AM 17.1 °F 11.7 °F 12.9 °F 84% 30.32 in 2.0 mi NE 3.5 mph - 0.00 in Snow Light Snow
1:04 AM 16.0 °F 8.8 °F 12.9 °F 88% 30.26 in 1.8 mi NE 4.6 mph - 0.00 in Snow Light Snow
1:38 AM 16.0 °F 10.4 °F 14.0 °F 92% 30.25 in 2.0 mi NE 3.5 mph - 0.01 in Snow Light Snow
1:54 AM 16.0 °F 7.4 °F 14.0 °F 92% 30.30 in 2.5 mi ENE 5.8 mph - 0.01 in Snow Light Snow
2:19 AM 16.0 °F 8.8 °F 14.0 °F 92% 30.25 in 1.5 mi ENE 4.6 mph - 0.01 in Snow Light Snow
2:26 AM 16.0 °F 8.8 °F 14.0 °F 92% 30.25 in 1.5 mi ENE 4.6 mph - 0.01 in Snow Light Snow
2:54 AM 16.0 °F 7.4 °F 14.0 °F 92% 30.30 in 1.5 mi ENE 5.8 mph - 0.02 in Snow Light Snow
3:25 AM 16.0 °F 5.3 °F 12.9 °F 88% 30.24 in 3.0 mi ENE 8.1 mph - 0.00 in Snow Light Snow
3:54 AM 15.1 °F 5.2 °F 12.9 °F 91% 30.29 in 4.0 mi ENE 6.9 mph - 0.01 in Snow Light Snow
4:18 AM 15.1 °F 4.2 °F 12.9 °F 91% 30.22 in 3.0 mi ENE 8.1 mph - 0.01 in Snow Light Snow
4:45 AM 15.1 °F 4.2 °F 12.0 °F 88% 30.22 in 2.5 mi ENE 8.1 mph - 0.01 in Snow Light Snow
4:52 AM 15.8 °F 3.4 °F 12.2 °F 86% 30.22 in 2.5 mi ENE 10.4 mph - 0.01 in Snow Light Snow
4:54 AM 15.1 °F 4.2 °F 12.0 °F 88% 30.28 in 2.5 mi ENE 8.1 mph - 0.01 in Snow Light Snow
5:03 AM 15.1 °F 4.2 °F 12.0 °F 88% 30.21 in 1.8 mi ENE 8.1 mph - 0.00 in Snow Light Snow
5:15 AM 14.0 °F 5.1 °F 12.0 °F 92% 30.21 in 1.0 mi NE 5.8 mph - 0.01 in Snow Light Snow
5:24 AM 14.0 °F 2.0 °F 10.9 °F 88% 30.21 in 1.2 mi ENE 9.2 mph - 0.01 in Snow Light Snow
5:54 AM 14.0 °F 3.9 °F 10.9 °F 88% 30.26 in 1.0 mi NE 6.9 mph - 0.03 in Snow Light Snow
6:25 AM 12.9 °F 1.6 °F 10.0 °F 88% 30.20 in 2.0 mi NE 8.1 mph - 0.01 in Snow Light Snow
6:38 AM 12.9 °F 0.7 °F 10.0 °F 88% 30.20 in 4.0 mi NE 9.2 mph 17.3 mph 0.01 in Snow Light Snow
6:54 AM 12.9 °F 0.7 °F 10.0 °F 88% 30.26 in 4.0 mi NE 9.2 mph - 0.01 in Snow Light Snow
7:32 AM 12.0 °F -1.3 °F 9.0 °F 88% 30.18 in 2.0 mi NE 10.4 mph 18.4 mph 0.00 in Snow Light Snow
7:43 AM 12.0 °F -1.3 °F 9.0 °F 88% 30.18 in 1.5 mi NE 10.4 mph 19.6 mph 0.01 in Snow Light Snow
7:54 AM 12.0 °F -2.0 °F 9.0 °F 88% 30.24 in 1.0 mi NE 11.5 mph - 0.01 in Snow Light Snow
8:10 AM 12.0 °F 0.5 °F 9.0 °F 88% 30.19 in 0.8 mi NE 8.1 mph 19.6 mph 0.00 in Snow Light Snow
8:54 AM 12.0 °F -1.3 °F 9.0 °F 88% 30.23 in 0.8 mi NE 10.4 mph 18.4 mph 0.02 in Snow Light Snow
9:13 AM 12.0 °F -2.0 °F 9.0 °F 88% 30.16 in 1.0 mi NE 11.5 mph 21.9 mph 0.00 in Snow Light Snow
9:54 AM 12.0 °F -2.0 °F 8.1 °F 84% 30.21 in 0.8 mi NE 11.5 mph 21.9 mph 0.02 in Snow Light Snow
10:22 AM 12.0 °F -2.0 °F 9.0 °F 88% 30.13 in 1.0 mi NE 11.5 mph 24.2 mph 0.00 in Snow Light Snow
10:30 AM 12.0 °F -4.5 °F 8.1 °F 84% 30.12 in 0.8 mi NE 16.1 mph 26.5 mph 0.00 in Snow Light Snow
10:54 AM 10.9 °F -6.5 °F 8.1 °F 88% 30.17 in 0.5 mi NE 17.3 mph 29.9 mph 0.01 in Fog , Snow Light Snow
11:08 AM 10.9 °F -7.0 °F 8.1 °F 88% 30.09 in 0.5 mi NE 18.4 mph 28.8 mph 0.00 in Fog , Snow Light Snow
11:21 AM 12.0 °F -4.5 °F 8.1 °F 84% 30.07 in 0.5 mi NE 16.1 mph 26.5 mph 0.01 in Fog , Snow Light Snow
11:54 AM 10.0 °F -6.5 °F 6.1 °F 84% 30.11 in 0.8 mi NE 15.0 mph 26.5 mph 0.01 in Snow Light Snow
12:54 PM 9.0 °F -7.3 °F 5.0 °F 84% 30.07 in 0.8 mi NE 13.8 mph 24.2 mph 0.00 in Snow Light Snow
1:54 PM 8.1 °F -10.2 °F 3.9 °F 83% 30.05 in 0.8 mi NE 17.3 mph 24.2 mph 0.01 in Snow Light Snow
2:13 PM 8.1 °F -7.0 °F 3.9 °F 83% 29.97 in 0.8 mi NE 11.5 mph 28.8 mph 0.00 in Snow Light Snow
2:28 PM 7.0 °F -11.0 °F 3.0 °F 84% 29.96 in 0.8 mi NE 16.1 mph 27.6 mph 0.00 in Snow Light Snow
2:43 PM 7.0 °F -10.4 °F 3.0 °F 84% 29.95 in 0.8 mi NE 15.0 mph 26.5 mph 0.00 in Snow Light Snow
2:54 PM 6.1 °F -11.6 °F 3.0 °F 87% 30.01 in 1.2 mi NNE 15.0 mph 27.6 mph 0.00 in Snow Light Snow
3:09 PM 6.1 °F -13.8 °F 1.9 °F 83% 29.94 in 0.8 mi NE 19.6 mph 29.9 mph 0.00 in Snow Light Snow
3:23 PM 6.1 °F -10.9 °F 1.9 °F 83% 29.93 in 0.8 mi NE 13.8 mph 26.5 mph 0.00 in Snow Light Snow
3:45 PM 6.1 °F -13.3 °F 1.9 °F 83% 29.92 in 1.0 mi NNE 18.4 mph 26.5 mph 0.00 in Snow Light Snow
3:54 PM 5.0 °F -13.0 °F 1.0 °F 84% 29.98 in 1.0 mi NE 15.0 mph 27.6 mph 0.00 in Snow Light Snow
4:02 PM 5.0 °F -14.7 °F 1.0 °F 84% 29.91 in 0.5 mi NE 18.4 mph 24.2 mph 0.00 in Fog , Snow Light Snow
4:54 PM 5.0 °F -13.0 °F 1.0 °F 84% 29.97 in 2.5 mi NE 15.0 mph 25.3 mph 0.00 in Snow Light Snow
5:04 PM 3.9 °F -15.6 °F 1.0 °F 88% 29.90 in 1.0 mi NE 17.3 mph 27.6 mph 0.00 in Snow Light Snow
5:11 PM 3.9 °F -14.3 °F 1.0 °F 88% 29.89 in 0.8 mi NE 15.0 mph 27.6 mph 0.00 in Snow Light Snow
5:33 PM 3.9 °F -13.7 °F 1.0 °F 88% 29.89 in 0.8 mi NE 13.8 mph 24.2 mph 0.01 in Snow Light Snow
5:54 PM 3.9 °F -15.6 °F 1.0 °F 88% 29.96 in 0.8 mi NE 17.3 mph 29.9 mph 0.02 in Snow Light Snow
6:01 PM 3.9 °F -16.1 °F -0.0 °F 84% 29.88 in 1.2 mi NNE 18.4 mph 29.9 mph 0.00 in Snow Light Snow
6:54 PM 3.0 °F -16.1 °F -0.9 °F 84% 29.94 in 0.8 mi NE 16.1 mph 25.3 mph 0.00 in Snow Light Snow
7:30 PM 1.9 °F -19.2 °F -2.0 °F 83% 29.84 in 1.0 mi NE 19.6 mph 26.5 mph 0.02 in Snow Light Snow
7:50 PM 1.4 °F -18.2 °F -2.2 °F 85% 29.85 in 0.8 mi NE 16.1 mph 31.1 mph 0.02 in Snow Light Snow
7:54 PM 1.9 °F -18.1 °F -2.0 °F 83% 29.92 in 0.8 mi NNE 17.3 mph 31.1 mph 0.02 in Snow Light Snow
8:42 PM 1.0 °F -18.7 °F -2.9 °F 83% 29.82 in 0.8 mi NE 16.1 mph 32.2 mph 0.02 in Snow Light Snow
8:54 PM 1.0 °F -18.7 °F -2.9 °F 83% 29.87 in 0.8 mi NE 16.1 mph 31.1 mph 0.02 in Snow Light Snow
9:54 PM 1.0 °F -18.0 °F -2.9 °F 83% 29.84 in 0.8 mi NNE 15.0 mph 28.8 mph 0.04 in Snow Light Snow
10:13 PM -0.0 °F -21.3 °F -4.0 °F 83% 29.76 in 0.8 mi NE 18.4 mph 31.1 mph 0.01 in Snow Light Snow
10:54 PM -0.0 °F -19.4 °F -5.1 °F 79% 29.82 in 0.8 mi NE 15.0 mph 28.8 mph 0.03 in Snow Light Snow
11:54 PM -0.9 °F -22.4 °F -6.0 °F 79% 29.80 in 0.8 mi NE 18.4 mph 28.8 mph 0.03 in Snow Light Snow